{"data":{"norad_id":68696,"intl_designator":"2026-080F","name":"JILIN GAOFEN OBJECT F","alt_names":[],"object_type":"PAYLOAD","status":"ACTIVE","operator":null,"country":"PRC","launch_date":"2026-04-14","launch_site_code":"JSC","launch_vehicle":null,"mission":null,"orbit_class":"UNKNOWN","rcs_meters":null,"size_class":null,"mass_kg":null,"dimensions":null,"purposes":[],"wikipedia_slug":null,"has_3d_model":false,"image_url":null,"decayed_at":null,"tle_current":{"epoch":"2026-05-25T04:13:32.916288Z","epoch_age_seconds":67106,"freshness":"FRESH","line1":"1 68696U 26080F   26145.17607542  .00004888  00000+0  30568-3 0  9993","line2":"2 68696  97.6612 220.8011 0016245 140.3469 219.8951 15.09795593  6157","mean_motion":15.09795593,"eccentricity":0.0016245,"inclination_deg":97.6612,"raan_deg":220.8011,"arg_perigee_deg":140.3469,"mean_anomaly_deg":219.8951,"bstar":0.00030568,"rev_number":615,"period_min":95.377149507947,"perigee_km":525.59070989667,"apogee_km":548.05741839408,"semimajor_km":6914.9610641454,"source":"CELESTRAK","updated_at":"2026-05-25T13:38:08.023752Z"}}}